Back to catalog

STARLINK-38269

AliveCommunicationsSSO
NORAD 100392·PAYLOAD·🇺🇸 United States

Launched Aug 19, 2026 from Vandenberg Space Force Base

Loading…

Next Passes (next 24 hours)

TLE

FreshSource: Space-Track

Epoch: Sep 14, 2026, 13:02 UTC

1 A0392U 26190X   26257.54336987  .00177920  00000-0  11677-2 0  9999
2 A0392  97.2842 111.5400 0001366  90.7170 269.4252 15.75216477  5437

Track STARLINK-38269 in real time with AllMySat

Download on the App Store